• In Netherlands
  • List of Countries
  • For 7 days
  • Water Temperature
  • Satellite Maps
  • Weather Map
  • Weather Widgets
  • user-avatar
    Login

    Hourly Weather Sydney

    Today, 19 June, Tuesday

    Time Temperature Precipitation Wind Pressure Humidity
    00:00 +7°C° 0.1 mm 8 mps 764 mmHg 70%
    01:00 +7°C° 0.1 mm 8 mps 764 mmHg 70%
    02:00 +9°C° 0.5 mm 8 mps 764 mmHg 70%
    03:00 +8°C° 0.5 mm 9 mps 764 mmHg 71%
    04:00 +9°C° 0 mm 8 mps 763 mmHg 71%
    05:00 +8°C° 0.7 mm 9 mps 763 mmHg 72%
    06:00 +10°C° 0.7 mm 9 mps 764 mmHg 73%
    07:00 +10°C° 0.7 mm 9 mps 764 mmHg 74%
    08:00 +11°C° 0.7 mm 9 mps 764 mmHg 72%
    09:00 +12°C° 0.7 mm 9 mps 765 mmHg 71%
    10:00 +12°C° 0 mm 9 mps 765 mmHg 72%
    11:00 +13°C° 0.6 mm 9 mps 765 mmHg 70%
    12:00 +13°C° 0.6 mm 9 mps 765 mmHg 69%
    13:00 +13°C° 0.6 mm 9 mps 765 mmHg 68%
    14:00 +13°C° 0.9 mm 9 mps 765 mmHg 70%
    15:00 +13°C° 0.9 mm 8 mps 765 mmHg 72%
    16:00 +13°C° 0.9 mm 8 mps 765 mmHg 74%
    17:00 +12°C° 0.6 mm 8 mps 766 mmHg 77%
    18:00 +11°C° 0.6 mm 7 mps 766 mmHg 81%
    19:00 +11°C° 0.6 mm 7 mps 767 mmHg 85%
    20:00 +11°C° 0.3 mm 7 mps 767 mmHg 85%
    21:00 +10°C° 0.3 mm 7 mps 767 mmHg 86%
    22:00 +10°C° 0.3 mm 7 mps 768 mmHg 87%
    23:00 +10°C° 0.2 mm 6 mps 768 mmHg 88%

    Tomorrow, 20 June, Wednesday

    Time Temperature Precipitation Wind Pressure Humidity
    00:00 +10°C° 0.2 mm 6 mps 768 mmHg 88%
    01:00 +10°C° 0.2 mm 6 mps 768 mmHg 89%
    02:00 +10°C° 0.1 mm 6 mps 768 mmHg 89%
    03:00 +10°C° 0.1 mm 6 mps 768 mmHg 89%
    04:00 +10°C° 0.1 mm 6 mps 769 mmHg 90%
    05:00 +9°C° 0.1 mm 5 mps 769 mmHg 90%
    06:00 +9°C° 0.1 mm 5 mps 769 mmHg 91%
    07:00 +9°C° 0.1 mm 5 mps 769 mmHg 92%
    08:00 +10°C° 0 mm 5 mps 769 mmHg 84%
    09:00 +13°C° 0 mm 5 mps 769 mmHg 77%
    10:00 +14°C° 0 mm 5 mps 770 mmHg 70%
    11:00 +15°C° 0 mm 4 mps 769 mmHg 66%
    12:00 +15°C° 0 mm 4 mps 769 mmHg 62%
    13:00 +15°C° 0 mm 4 mps 768 mmHg 59%
    14:00 +15°C° 0 mm 4 mps 768 mmHg 60%
    15:00 +15°C° 0 mm 4 mps 768 mmHg 61%
    16:00 +14°C° 0 mm 4 mps 768 mmHg 62%
    17:00 +13°C° 0 mm 4 mps 769 mmHg 67%
    18:00 +12°C° 0 mm 4 mps 769 mmHg 72%
    19:00 +11°C° 0 mm 4 mps 770 mmHg 77%
    20:00 +10°C° 0 mm 4 mps 770 mmHg 78%
    21:00 +10°C° 0 mm 4 mps 770 mmHg 79%
    22:00 +10°C° 0 mm 4 mps 770 mmHg 80%
    23:00 +9°C° 0 mm 3 mps 770 mmHg 81%

    Day after tomorrow, 21 June, Thursday

    Time Temperature Precipitation Wind Pressure Humidity
    00:00 +9°C° 0 mm 3 mps 770 mmHg 82%
    01:00 +9°C° 0 mm 3 mps 769 mmHg 82%
    02:00 +9°C° 0 mm 3 mps 769 mmHg 82%
    03:00 +8°C° 0 mm 3 mps 769 mmHg 82%
    04:00 +8°C° 0 mm 3 mps 769 mmHg 82%
    05:00 +8°C° 0 mm 3 mps 769 mmHg 82%
    06:00 +8°C° 0 mm 3 mps 769 mmHg 81%
    07:00 +8°C° 0 mm 3 mps 770 mmHg 80%
    08:00 +10°C° 0 mm 3 mps 770 mmHg 73%
    09:00 +12°C° 0 mm 3 mps 770 mmHg 67%
    10:00 +14°C° 0 mm 3 mps 770 mmHg 60%
    11:00 +16°C° 0 mm 2 mps 770 mmHg 56%
    12:00 +18°C° 0 mm 2 mps 769 mmHg 53%
    13:00 +19°C° 0 mm 2 mps 769 mmHg 49%
    14:00 +18°C° 0 mm 2 mps 769 mmHg 52%
    15:00 +18°C° 0 mm 2 mps 768 mmHg 55%
    16:00 +17°C° 0 mm 2 mps 768 mmHg 58%
    17:00 +15°C° 0 mm 2 mps 769 mmHg 68%
    18:00 +14°C° 0 mm 2 mps 769 mmHg 78%
    19:00 +12°C° 0 mm 1 mps 770 mmHg 88%
    20:00 +12°C° 0 mm 1 mps 770 mmHg 89%
    21:00 +11°C° 0 mm 1 mps 770 mmHg 90%
    22:00 +11°C° 0 mm 1 mps 770 mmHg 91%
    23:00 +10°C° 0 mm 1 mps 770 mmHg 92%

    22 June, Friday

    Time Temperature Precipitation Wind Pressure Humidity
    00:00 +10°C° 0 mm 1 mps 770 mmHg 92%
    01:00 +9°C° 0 mm 2 mps 770 mmHg 93%
    02:00 +8°C° 0 mm 2 mps 770 mmHg 92%
    03:00 +8°C° 0 mm 2 mps 770 mmHg 91%
    04:00 +8°C° 0 mm 2 mps 770 mmHg 90%
    05:00 +8°C° 0 mm 2 mps 770 mmHg 89%
    06:00 +7°C° 0 mm 2 mps 770 mmHg 88%
    07:00 +7°C° 0 mm 2 mps 771 mmHg 87%
    08:00 +10°C° 0 mm 2 mps 771 mmHg 78%
    09:00 +13°C° 0 mm 2 mps 771 mmHg 69%
    10:00 +15°C° 0 mm 2 mps 771 mmHg 60%
    11:00 +18°C° 0 mm 1 mps 770 mmHg 55%
    12:00 +19°C° 0 mm 1 mps 769 mmHg 51%
    13:00 +20°C° 0 mm 1 mps 769 mmHg 47%
    14:00 +20°C° 0 mm 1 mps 769 mmHg 49%
    15:00 +18°C° 0 mm 2 mps 769 mmHg 52%
    16:00 +18°C° 0 mm 2 mps 769 mmHg 54%
    17:00 +16°C° 0 mm 2 mps 769 mmHg 63%
    18:00 +14°C° 0 mm 2 mps 769 mmHg 72%
    19:00 +13°C° 0 mm 2 mps 769 mmHg 82%
    20:00 +12°C° 0 mm 2 mps 770 mmHg 84%
    21:00 +12°C° 0 mm 2 mps 770 mmHg 87%
    22:00 +10°C° 0 mm 2 mps 770 mmHg 90%
    23:00 +10°C° 0 mm 2 mps 770 mmHg 90%

    23 June, Saturday

    Time Temperature Precipitation Wind Pressure Humidity
    00:00 +9°C° 0 mm 2 mps 769 mmHg 90%
    01:00 +9°C° 0 mm 2 mps 769 mmHg 91%
    02:00 +8°C° 0 mm 2 mps 769 mmHg 89%
    03:00 +8°C° 0 mm 2 mps 769 mmHg 88%
    04:00 +8°C° 0 mm 2 mps 768 mmHg 86%
    05:00 +7°C° 0 mm 2 mps 769 mmHg 83%
    06:00 +7°C° 0 mm 2 mps 769 mmHg 80%
    07:00 +7°C° 0 mm 2 mps 769 mmHg 77%
    08:00 +9°C° 0 mm 2 mps 769 mmHg 67%
    09:00 +12°C° 0 mm 2 mps 769 mmHg 57%
    10:00 +15°C° 0 mm 2 mps 769 mmHg 46%
    11:00 +16°C° 0 mm 2 mps 768 mmHg 42%
    12:00 +18°C° 0 mm 2 mps 767 mmHg 37%
    13:00 +21°C° 0 mm 1 mps 766 mmHg 32%
    14:00 +20°C° 0 mm 1 mps 766 mmHg 35%
    15:00 +19°C° 0 mm 1 mps 766 mmHg 38%
    16:00 +19°C° 0 mm 1 mps 766 mmHg 41%
    17:00 +16°C° 0 mm 2 mps 766 mmHg 47%
    18:00 +14°C° 0 mm 2 mps 767 mmHg 52%
    19:00 +12°C° 0 mm 2 mps 767 mmHg 58%
    20:00 +11°C° 0 mm 3 mps 767 mmHg 59%
    21:00 +10°C° 0 mm 4 mps 767 mmHg 59%
    22:00 +8°C° 0 mm 4 mps 768 mmHg 60%
    23:00 +8°C° 0 mm 4 mps 767 mmHg 62%

    24 June, Sunday

    Time Temperature Precipitation Wind Pressure Humidity
    00:00 +7°C° 0 mm 4 mps 767 mmHg 65%
    01:00 +7°C° 0 mm 4 mps 767 mmHg 67%
    02:00 +6°C° 0 mm 4 mps 767 mmHg 68%
    03:00 +6°C° 0 mm 4 mps 767 mmHg 69%
    04:00 +6°C° 0 mm 4 mps 767 mmHg 69%
    05:00 +6°C° 0 mm 4 mps 767 mmHg 70%
    06:00 +6°C° 0 mm 4 mps 767 mmHg 70%
    07:00 +6°C° 0 mm 4 mps 768 mmHg 70%
    08:00 +8°C° 0 mm 4 mps 768 mmHg 62%
    09:00 +11°C° 0 mm 4 mps 768 mmHg 53%
    10:00 +14°C° 0 mm 4 mps 768 mmHg 45%
    11:00 +15°C° 0 mm 4 mps 767 mmHg 41%
    12:00 +18°C° 0 mm 3 mps 767 mmHg 38%
    13:00 +19°C° 0 mm 3 mps 766 mmHg 34%
    14:00 +19°C° 0 mm 3 mps 766 mmHg 38%
    15:00 +18°C° 0 mm 2 mps 766 mmHg 41%
    16:00 +18°C° 0 mm 2 mps 766 mmHg 45%
    17:00 +16°C° 0 mm 2 mps 767 mmHg 51%
    18:00 +15°C° 0 mm 2 mps 767 mmHg 58%
    19:00 +13°C° 0 mm 2 mps 768 mmHg 64%
    20:00 +13°C° 0.1 mm 2 mps 768 mmHg 67%
    21:00 +12°C° 0.1 mm 2 mps 769 mmHg 70%
    22:00 +12°C° 0.1 mm 2 mps 769 mmHg 73%
    23:00 +10°C° 0 mm 3 mps 769 mmHg 75%
    Show more